TimeCST,TemperatureF,Dew PointF,Humidity,Sea Level PressureIn,VisibilityMPH,Wind Direction,Wind SpeedMPH,Gust SpeedMPH,PrecipitationIn,Events,Conditions,WindDirDegrees,DateUTC
12:08 AM,55.4,55.4,100,29.97,3.0,SSW,5.8,-,N/A,,Scattered Clouds,210,2012-12-09 06:08:00
12:58 AM,55.9,55.9,100,29.97,5.0,South,5.8,-,N/A,,Clear,190,2012-12-09 06:58:00
1:58 AM,55.0,55.0,100,29.97,4.0,Calm,Calm,-,N/A,,Clear,0,2012-12-09 07:58:00
2:17 AM,55.4,55.4,100,29.98,1.5,SSW,3.5,-,N/A,,Clear,200,2012-12-09 08:17:00
2:20 AM,55.4,55.4,100,29.97,0.8,Calm,Calm,-,N/A,,Mist,0,2012-12-09 08:20:00
2:27 AM,55.4,53.6,94,29.97,1.2,South,3.5,-,N/A,,Partly Cloudy,190,2012-12-09 08:27:00
2:30 AM,55.4,53.6,94,29.97,3.0,South,3.5,-,N/A,,Partly Cloudy,190,2012-12-09 08:30:00
2:41 AM,55.4,53.6,94,29.97,1.8,South,5.8,-,N/A,,Scattered Clouds,190,2012-12-09 08:41:00
2:49 AM,55.4,55.4,100,29.97,2.0,South,6.9,-,N/A,,Mostly Cloudy,190,2012-12-09 08:49:00
2:56 AM,57.2,57.2,100,29.98,5.0,South,9.2,-,N/A,,Mostly Cloudy,190,2012-12-09 08:56:00
2:57 AM,57.0,57.0,100,29.97,5.0,South,9.2,-,N/A,,Mostly Cloudy,190,2012-12-09 08:57:00
3:12 AM,57.2,57.2,100,29.98,1.8,South,9.2,-,N/A,,Overcast,190,2012-12-09 09:12:00
3:51 AM,57.2,57.2,100,29.99,2.5,SSW,8.1,-,N/A,,Overcast,200,2012-12-09 09:51:00
3:58 AM,57.9,57.9,100,29.99,2.5,South,10.4,-,N/A,,Overcast,190,2012-12-09 09:58:00
4:13 AM,57.2,57.2,100,29.99,3.0,South,9.2,-,N/A,,Overcast,190,2012-12-09 10:13:00
4:35 AM,57.2,57.2,100,29.99,2.5,South,9.2,-,N/A,,Overcast,190,2012-12-09 10:35:00
4:53 AM,57.2,57.2,100,29.99,1.5,South,6.9,-,N/A,,Overcast,190,2012-12-09 10:53:00
4:58 AM,57.9,57.9,100,29.99,1.5,South,9.2,-,N/A,,Overcast,190,2012-12-09 10:58:00
5:33 AM,59.0,59.0,100,30.00,2.5,South,8.1,-,0.01,,Overcast,180,2012-12-09 11:33:00
5:40 AM,59.0,59.0,100,30.01,3.0,South,5.8,-,0.01,,Overcast,180,2012-12-09 11:40:00
5:58 AM,59.0,59.0,100,30.01,5.0,South,9.2,-,0.01,,Overcast,170,2012-12-09 11:58:00
6:13 AM,59.0,59.0,100,30.01,6.0,South,9.2,-,N/A,,Overcast,180,2012-12-09 12:13:00
6:58 AM,60.1,59.0,96,30.02,7.0,South,6.9,-,N/A,,Overcast,190,2012-12-09 12:58:00
7:58 AM,61.0,60.1,97,30.04,7.0,SSW,5.8,-,N/A,,Overcast,200,2012-12-09 13:58:00
8:48 AM,62.6,60.8,94,30.04,10.0,South,8.1,-,N/A,,Overcast,190,2012-12-09 14:48:00
8:58 AM,63.0,60.1,90,30.04,10.0,South,8.1,-,N/A,,Mostly Cloudy,180,2012-12-09 14:58:00
9:14 AM,64.4,60.8,88,30.04,10.0,SSW,10.4,-,N/A,,Scattered Clouds,200,2012-12-09 15:14:00
9:58 AM,68.0,59.0,73,30.03,10.0,SSW,15.0,-,N/A,,Partly Cloudy,200,2012-12-09 15:58:00
10:58 AM,70.0,57.9,65,30.01,10.0,SSW,9.2,-,N/A,,Overcast,200,2012-12-09 16:58:00
11:58 AM,72.0,61.0,68,29.98,10.0,SSW,13.8,-,N/A,,Partly Cloudy,200,2012-12-09 17:58:00
12:58 PM,72.0,62.1,71,29.96,10.0,SSW,10.4,-,N/A,,Partly Cloudy,200,2012-12-09 18:58:00
1:25 PM,71.6,62.6,73,29.95,10.0,SSW,11.5,-,N/A,,Mostly Cloudy,200,2012-12-09 19:25:00
1:43 PM,73.4,62.6,69,29.95,10.0,SSW,13.8,-,N/A,,Mostly Cloudy,210,2012-12-09 19:43:00
1:58 PM,73.0,63.0,71,29.94,10.0,South,9.2,-,N/A,,Mostly Cloudy,190,2012-12-09 19:58:00
2:58 PM,73.0,63.0,71,29.93,10.0,South,9.2,-,N/A,,Mostly Cloudy,180,2012-12-09 20:58:00
3:58 PM,72.0,64.0,76,29.93,10.0,South,8.1,-,N/A,,Mostly Cloudy,170,2012-12-09 21:58:00
4:58 PM,70.0,64.0,81,29.92,10.0,SSE,5.8,-,N/A,,Mostly Cloudy,160,2012-12-09 22:58:00
5:58 PM,69.1,64.0,84,29.91,10.0,South,9.2,-,N/A,,Scattered Clouds,170,2012-12-09 23:58:00
6:58 PM,69.1,64.9,87,29.91,10.0,South,10.4,-,N/A,,Mostly Cloudy,170,2012-12-10 00:58:00
7:36 PM,69.8,64.4,83,29.90,10.0,SSE,11.5,-,N/A,,Mostly Cloudy,160,2012-12-10 01:36:00
7:58 PM,69.1,66.0,90,29.89,10.0,South,13.8,-,N/A,,Overcast,180,2012-12-10 01:58:00
8:09 PM,69.8,66.2,88,29.89,10.0,South,12.7,-,N/A,,Overcast,180,2012-12-10 02:09:00
8:58 PM,69.1,66.0,90,29.88,10.0,South,15.0,21.9,N/A,,Overcast,180,2012-12-10 02:58:00
9:58 PM,69.1,66.0,90,29.88,10.0,South,13.8,20.7,N/A,,Overcast,180,2012-12-10 03:58:00
10:33 PM,69.8,66.2,88,29.89,10.0,South,13.8,-,N/A,,Overcast,180,2012-12-10 04:33:00
10:43 PM,69.8,66.2,88,29.89,10.0,South,11.5,-,N/A,,Overcast,180,2012-12-10 04:43:00
10:58 PM,69.1,66.0,90,29.88,10.0,South,11.5,-,N/A,,Overcast,190,2012-12-10 04:58:00
11:43 PM,69.8,66.2,88,29.89,10.0,South,12.7,-,N/A,,Mostly Cloudy,190,2012-12-10 05:43:00
11:58 PM,69.8,66.2,88,29.88,10.0,South,11.5,-,N/A,,Overcast,190,2012-12-10 05:58:00